Orbital Elements at Epoch 2459200.5 (2020-Dec-17.0) TDB
Reference: JPL 24 (heliocentric ecliptic J2000)
Element | Value | Uncertainty (1-sigma) | Units |
e | .1704164552944417 | 3.623e-08 | |
a | 3.203565562657177 | 2.0745e-08 | au |
q | 2.657625275165797 | 1.2166e-07 | au |
i | 1.460591644857589 | 5.1398e-06 | deg |
node | 43.44497266536162 | 0.00017135 | deg |
peri | 258.6520061935335 | 0.00017219 | deg |
M | 316.6627271914554 | 1.887e-05 | deg |
tp | 2459452.620365906352 (2021-Aug-26.12036591) | 0.00011067 | TDB |
period | 2094.348025249792 5.73 | 2.0343e-05 5.57e-08 | d yr |
n | .1718912022547269 | 1.6696e-09 | deg/d |
Q | 3.749505850148557 | 2.428e-08 | au |
|
| | Orbit Determination Parameters
Additional Information
|